Theta_e
325 325 324 324 323 322 322 322 322 322 322 322 322 323 324 324 323 322 323 323 322 322 322 324 325 327 324 318 318 327 358 355 342 331 332 334 328 327 323 327 328 324 329 331 332 330 331
326 326 326 324 324 323 323 322 323 322 322 321 322 323 323 322 322 322 323 322 321 321 322 323 325 326 323 312 326 328 328 332 332 331 333 335 329 329 325 326 327 328 329 328 330 330 330
326 326 326 325 325 324 324 323 323 322 322 321 322 322 323 321 321 322 322 321 320 321 322 323 326 326 318 316 325 326 328 328 334 337 333 334 333 326 326 326 332 328 325 325 328 329 328
326 326 326 326 325 324 324 324 324 323 322 321 321 322 322 321 321 321 320 319 319 321 323 325 329 324 315 325 327 324 327 328 332 337 335 335 332 327 325 330 328 323 324 318 326 326 328
326 325 325 325 324 324 323 323 323 323 322 321 321 321 321 321 320 319 318 319 320 325 325 329 322 321 314 327 319 322 324 323 328 331 334 334 330 325 326 323 320 320 314 317 320 328 326
325 325 325 325 324 324 323 322 323 322 322 321 321 320 320 320 319 318 317 317 326 323 325 327 324 317 320 316 320 320 325 325 324 327 327 327 326 321 321 319 310 314 315 319 319 324 325
324 324 324 324 323 323 323 322 322 322 322 321 321 320 319 319 318 316 318 325 321 319 321 317 317 313 316 320 322 319 324 323 324 322 318 322 318 315 317 321 321 319 317 318 322 325 322
326 324 324 323 323 322 322 322 321 322 322 321 320 319 319 318 317 316 318 322 322 322 314 322 323 320 319 320 314 318 322 318 317 313 319 317 314 321 323 321 318 317 318 317 321 326 323
327 325 324 323 322 322 321 321 321 321 321 321 320 319 318 316 315 320 323 321 328 326 314 316 319 318 318 318 313 315 318 318 315 313 314 312 316 323 320 319 315 316 316 317 318 322 324
326 326 324 323 323 322 321 320 320 320 320 320 320 318 316 314 317 326 322 328 327 327 309 312 315 317 319 318 312 320 320 317 315 312 313 313 318 318 318 317 317 312 321 320 319 317 312
324 324 325 324 323 322 321 320 320 319 320 320 319 317 315 314 322 320 324 327 327 323 299 314 314 321 319 314 315 314 321 317 311 313 314 311 313 314 313 317 320 314 320 319 319 316 314
323 323 323 324 324 322 321 319 319 319 319 319 318 317 314 323 323 328 328 325 324 307 298 309 314 312 311 313 313 316 315 319 317 313 314 313 317 316 315 318 320 321 318 318 318 317 307
323 323 323 323 324 322 320 319 319 318 318 318 316 314 314 323 323 329 327 321 306 301 312 309 310 312 310 310 310 312 311 310 307 304 305 311 311 315 317 314 319 318 315 307 306 305 303
322 322 322 322 323 322 320 320 319 318 318 316 312 312 319 325 329 329 322 312 301 308 308 314 312 312 309 311 310 310 310 308 310 309 306 304 303 311 314 314 313 315 315 307 302 301 307
322 322 321 322 323 322 320 319 318 318 317 314 311 327 328 329 329 326 315 303 305 310 312 310 312 308 309 311 310 309 309 308 311 310 305 305 306 315 314 315 317 314 312 318 310 311 307
322 321 321 321 323 322 321 319 318 318 317 314 319 323 324 330 329 322 310 302 309 314 313 313 307 310 307 310 309 309 308 311 310 313 314 309 304 313 314 315 316 315 318 310 311 303 302
322 321 320 320 322 322 321 320 319 318 315 313 321 321 326 331 327 316 305 306 310 316 315 310 309 309 311 310 311 309 308 311 313 313 314 312 308 308 314 311 310 312 310 312 313 311 304
320 321 320 320 320 322 322 320 318 316 312 317 322 314 329 330 312 312 308 310 309 313 315 312 313 312 311 311 311 309 308 311 315 314 309 313 309 304 308 315 317 315 313 312 308 309 311
316 318 320 321 320 321 322 321 318 316 314 320 318 320 329 325 306 308 312 311 313 312 312 311 309 312 313 311 309 312 313 316 316 313 311 312 307 302 304 309 314 312 313 315 314 313 310
315 315 318 321 321 321 321 321 318 318 316 319 319 313 319 320 316 311 312 312 310 315 311 312 311 313 312 311 314 312 313 316 316 314 324 314 308 305 301 306 310 308 310 313 312 310 309
313 315 318 321 321 321 321 321 320 318 317 318 319 315 321 315 311 311 312 312 310 309 314 314 310 311 311 309 311 311 314 315 315 320 315 311 305 308 308 309 310 310 310 310 310 312 310
313 315 318 320 320 321 321 321 321 319 315 319 317 317 320 317 319 317 309 311 311 313 313 312 310 312 313 310 312 312 316 315 313 318 314 314 306 308 306 309 309 307 310 311 311 312 312
314 316 320 320 320 320 321 321 321 319 316 323 325 325 320 311 313 312 314 314 314 315 317 318 315 316 311 316 319 322 321 321 321 320 316 315 309 306 303 308 308 304 308 309 310 313 312
317 319 319 319 319 319 320 320 322 320 318 321 323 323 316 311 313 313 314 316 316 317 315 317 319 315 321 325 325 324 322 321 321 319 316 309 311 310 304 307 299 309 315 313 311 313 315
317 318 318 319 319 319 320 320 322 321 318 320 323 320 317 312 316 314 315 314 317 320 317 317 319 322 324 320 315 313 312 312 314 316 316 316 311 309 304 303 308 310 313 312 310 310 316
317 317 317 317 318 318 319 320 322 321 318 320 322 326 320 313 313 318 315 316 312 313 315 316 322 323 320 316 313 309 305 308 307 310 316 316 317 312 308 302 300 312 321 319 317 307 320
315 315 316 316 317 318 318 319 321 322 318 319 320 325 320 314 318 319 315 315 318 316 312 316 318 317 320 313 308 307 306 311 305 306 306 310 315 310 307 307 310 321 324 325 307 314 327
314 314 315 315 316 317 318 319 320 322 320 318 321 326 319 315 317 319 321 318 318 317 312 317 316 317 315 310 308 308 308 310 307 310 309 308 308 308 308 308 305 322 323 317 319 322 331
313 313 314 314 315 316 318 319 319 320 319 318 317 325 324 315 315 322 323 324 323 322 318 319 318 318 320 315 315 317 311 312 306 306 313 307 313 309 309 310 320 324 325 324 323 320 323
Wind_Speed
10 11 10 11 13 15 15 16 16 16 17 17 18 18 18 18 20 20 19 18 18 19 19 18 18 17 13 10 17 9 9 7 10 11 14 16 20 18 6 22 14 2 8 5 5 3 6
8 9 8 11 11 13 13 16 16 17 17 17 17 19 19 21 21 21 19 19 19 19 18 18 16 16 8 15 5 11 9 10 14 14 16 19 18 11 12 11 5 10 6 2 4 4 4
8 9 9 9 10 10 11 14 16 17 17 18 16 19 19 22 22 22 21 21 21 19 18 17 12 7 12 18 4 3 8 11 15 16 16 18 8 13 17 8 14 28 7 27 6 6 2
10 10 10 10 10 10 11 12 13 15 18 19 19 19 18 22 23 23 23 23 22 18 16 14 9 9 10 9 12 14 12 14 13 13 14 16 10 14 20 16 11 16 18 6 7 6 8
9 9 9 10 10 11 11 12 12 13 14 16 17 19 20 19 21 22 24 25 22 16 11 10 7 9 15 3 11 13 15 15 16 16 15 12 10 16 20 14 10 8 16 8 6 4 2
8 9 9 10 10 11 11 12 12 13 13 15 16 18 20 20 21 21 26 25 10 8 7 9 11 11 13 12 10 14 15 17 16 17 16 16 13 16 14 10 4 14 11 3 6 10 4
8 8 9 10 10 10 11 12 14 13 14 16 17 19 20 21 22 20 16 6 6 8 11 15 5 13 4 7 4 6 11 14 17 16 17 16 14 17 14 11 13 14 3 9 12 6 5
8 8 9 9 10 10 11 12 13 15 15 16 18 20 21 23 24 23 8 8 8 11 12 17 22 19 17 1 8 15 14 15 17 17 18 17 18 20 19 1 5 17 9 2 8 12 8
9 9 9 10 10 10 11 12 13 14 16 16 19 21 22 27 29 11 12 12 8 13 10 16 21 21 18 14 14 13 20 18 18 19 18 18 19 23 13 14 8 17 11 9 8 14 7
11 10 10 10 10 11 12 12 14 15 16 17 18 20 23 30 7 11 11 6 8 10 8 14 13 10 15 18 19 19 18 15 17 20 20 18 19 21 13 17 7 19 7 11 10 8 4
10 11 12 11 11 11 12 13 14 15 16 17 17 18 19 8 12 10 11 10 10 9 8 13 12 5 9 14 5 20 17 16 21 19 15 16 18 17 18 21 6 17 11 6 15 11 5
10 11 12 12 11 11 12 13 15 16 17 17 18 18 17 3 9 15 12 10 9 8 11 10 10 10 15 18 20 13 17 12 16 20 20 19 19 16 18 23 12 18 10 16 19 16 7
11 11 12 12 12 10 11 13 14 16 18 19 20 20 9 8 9 13 10 8 8 11 5 8 9 13 15 15 18 16 17 17 17 14 17 19 19 18 16 18 18 15 14 11 15 8 7
11 10 12 12 11 10 11 13 14 16 18 20 23 29 9 10 10 13 8 9 10 13 20 5 5 6 14 16 17 20 15 15 19 21 13 16 16 21 16 18 17 17 16 11 7 6 15
10 10 12 13 11 10 11 13 14 16 18 19 28 10 6 9 13 9 8 11 13 17 10 9 8 10 12 13 15 18 20 18 19 19 21 15 18 13 20 20 14 18 18 13 20 18 6
10 11 12 12 11 10 11 12 14 16 19 14 11 11 13 10 10 8 9 16 20 16 4 9 11 19 14 16 16 16 19 17 19 20 19 20 16 15 13 15 16 19 18 13 10 13 14
11 10 11 12 12 11 11 12 13 16 20 22 7 7 9 9 7 8 11 15 18 19 3 9 16 19 11 16 14 16 16 18 15 19 18 17 17 18 14 10 15 12 15 18 15 2 5
12 11 11 11 11 11 11 11 11 13 22 12 8 9 9 8 8 10 13 18 19 16 3 9 11 14 14 17 16 7 19 16 13 8 15 16 10 15 19 12 15 18 16 19 11 12 10
13 13 13 11 11 11 11 10 10 10 11 8 7 11 10 9 10 12 18 20 20 8 11 15 12 14 15 15 14 12 14 12 7 7 9 14 11 13 18 15 15 15 18 14 16 17 16
13 13 14 11 10 11 11 11 10 9 8 7 7 6 8 8 12 18 18 13 14 13 12 18 13 14 14 11 13 11 14 9 5 5 6 8 15 13 14 14 13 19 19 17 20 16 15
12 12 13 12 10 10 11 11 10 10 8 6 6 7 6 6 11 15 18 17 10 12 11 10 13 15 15 12 15 15 18 19 12 9 9 12 17 17 19 20 19 15 15 19 20 19 19
9 10 13 9 9 9 10 10 9 10 10 6 7 9 12 13 19 17 10 13 14 12 11 11 12 14 17 18 18 13 14 14 13 11 13 15 16 16 18 20 20 20 17 17 19 20 21
8 10 10 8 8 9 11 11 8 9 6 6 8 13 8 10 13 12 11 10 12 11 15 7 14 13 17 9 9 14 8 18 4 2 6 7 13 15 17 19 20 17 17 19 15 18 19
9 9 8 7 7 9 10 10 8 8 6 8 9 9 8 10 12 14 16 9 13 15 9 13 12 14 16 8 11 17 14 21 18 8 11 6 19 14 15 16 18 15 18 20 16 18 18
7 8 9 9 8 10 10 10 8 8 7 8 8 6 7 11 14 14 18 13 7 14 9 12 14 13 16 17 10 17 16 21 23 19 20 20 17 12 13 13 13 19 11 14 14 15 13
9 7 8 10 11 11 11 9 8 7 7 7 6 8 10 9 13 18 14 12 10 11 14 15 17 14 14 11 11 18 17 19 19 19 20 20 18 13 9 16 18 10 23 14 10 12 6
10 10 9 11 11 11 10 10 10 7 6 6 6 9 6 11 15 18 13 13 13 13 12 7 15 12 14 8 13 17 17 3 5 5 10 14 14 16 6 6 8 10 23 23 14 7 9
9 10 10 10 11 11 10 9 8 6 5 5 7 4 5 7 17 21 19 15 13 11 10 14 9 7 8 14 14 15 8 8 5 6 7 6 9 9 11 12 7 19 10 10 8 21 14
9 10 10 11 11 12 10 9 8 6 7 4 6 1 3 6 12 22 22 21 20 20 14 13 15 12 7 8 8 7 5 6 3 3 3 4 5 8 4 4 12 17 3 9 12 17 22
Wind_Direction
36 32 28 20 16 14 11 8 5 0 357 354 351 341 338 339 339 335 329 324 322 321 315 312 316 325 320 238 253 143 168 167 182 210 239 259 283 302 267 106 250 4 272 159 127 287 3
17 16 17 20 14 13 6 6 2 359 354 350 342 338 336 338 336 330 320 319 318 315 309 305 310 316 250 268 290 147 215 173 224 209 239 246 266 339 296 316 87 204 288 5 111 184 167
18 13 14 8 7 360 356 1 359 357 352 346 337 335 335 336 332 325 317 316 313 308 300 294 301 287 264 248 317 275 216 228 216 232 241 255 322 309 296 334 15 7 7 25 177 191 163
8 7 2 1 7 0 351 354 349 351 350 346 340 332 332 334 329 321 314 314 310 305 293 282 279 255 262 235 249 253 241 225 248 245 263 292 311 285 278 55 36 31 303 130 209 196 131
359 358 356 355 355 351 349 349 344 339 339 336 333 331 328 322 323 315 311 307 302 292 264 274 235 228 255 139 231 237 240 233 229 234 244 261 279 272 275 84 60 184 270 205 133 196 248
350 349 347 346 346 344 342 339 335 337 334 332 329 327 323 318 315 316 315 293 286 297 223 221 261 268 236 243 224 217 222 231 240 219 231 241 246 255 253 135 226 241 223 139 247 172 218
336 339 339 339 337 337 337 334 332 332 331 329 325 324 323 318 314 319 329 273 216 192 231 248 194 242 128 232 350 235 215 215 243 252 226 227 246 248 255 225 220 280 46 20 339 127 265
317 324 328 330 330 331 332 331 329 327 324 327 325 324 325 321 316 313 279 263 49 336 293 256 238 249 264 267 271 216 224 226 217 238 222 235 231 258 277 111 327 285 95 19 252 268 240
307 316 320 322 324 326 326 326 324 323 322 322 325 326 331 325 316 284 243 296 341 316 282 277 229 227 228 227 243 241 203 214 223 227 241 233 242 240 277 288 268 255 349 175 225 242 114
330 319 314 316 318 321 323 323 323 322 322 320 324 330 335 331 297 332 281 21 292 316 278 246 180 222 216 214 236 240 203 222 229 235 228 249 243 267 234 252 244 279 182 297 287 259 271
331 328 317 306 310 316 319 320 320 320 321 322 319 322 322 313 307 290 2 322 323 271 277 122 150 84 182 196 283 198 231 203 238 230 243 245 238 252 260 269 226 268 301 324 289 297 72
321 321 319 312 301 311 317 318 318 318 317 315 310 312 334 281 213 259 297 295 274 237 247 162 144 196 216 200 248 170 208 228 231 249 256 252 272 247 248 262 245 273 298 286 269 245 29
327 327 319 312 304 310 315 315 316 317 316 314 308 300 294 291 255 346 316 273 229 246 121 182 193 193 206 203 221 232 188 209 222 225 240 251 241 259 265 256 262 236 253 273 274 77 211
328 332 322 318 307 310 315 316 317 317 316 315 311 304 242 233 248 272 271 241 245 231 247 74 352 210 213 221 201 228 202 221 218 245 251 224 238 221 229 248 254 238 245 265 264 164 233
327 328 327 326 309 308 312 316 318 319 318 322 309 289 225 242 219 245 247 231 227 264 342 340 263 237 250 243 233 207 213 228 226 212 250 259 250 240 205 230 236 256 262 252 271 301 320
317 324 326 328 322 315 314 317 320 322 320 328 318 290 261 172 167 218 236 251 257 291 24 332 279 277 242 204 227 227 222 222 241 230 218 261 282 290 207 204 224 239 272 268 245 266 285
316 315 318 324 325 314 314 319 325 328 322 318 258 254 112 145 183 228 236 241 252 257 194 263 271 296 285 291 209 220 243 233 220 240 232 234 256 274 261 186 235 217 240 263 281 90 289
327 319 313 317 321 319 311 319 330 337 328 318 285 268 132 170 212 228 238 245 269 296 199 238 277 298 313 311 309 227 244 224 228 212 261 230 246 253 264 230 209 253 233 235 249 235 224
315 320 322 309 316 319 313 317 328 342 359 321 279 271 150 211 235 236 225 245 262 285 265 263 240 254 263 279 285 288 287 271 271 263 223 258 217 257 266 245 205 217 246 255 249 268 280
307 308 312 308 312 316 317 313 321 330 342 307 277 260 191 196 252 283 287 256 244 227 254 281 268 267 277 278 273 284 276 269 232 288 49 302 268 229 248 254 252 209 226 247 256 250 259
300 297 304 303 316 318 320 316 315 315 325 293 245 254 12 275 213 232 266 286 286 248 193 237 253 273 272 264 254 252 248 282 165 201 234 249 252 258 260 268 278 272 222 230 240 261 266
302 297 305 303 313 320 320 315 304 311 318 256 293 346 348 299 296 301 252 257 285 267 260 254 225 268 230 245 271 283 309 282 275 201 205 226 245 258 260 267 267 270 270 230 220 244 262
301 298 299 300 322 329 325 320 302 311 333 286 356 334 295 293 292 285 264 280 280 270 293 292 290 299 250 286 303 331 318 302 26 104 36 315 249 233 245 243 251 259 251 262 259 226 239
298 313 309 312 328 330 324 319 297 301 319 303 305 312 291 286 273 269 272 299 300 314 325 285 310 266 287 19 342 307 272 256 264 187 123 339 303 256 250 254 240 258 248 236 250 269 221
331 335 337 327 339 323 319 317 296 288 305 296 309 317 304 294 284 293 302 263 236 269 253 272 289 304 298 284 292 273 255 247 244 248 193 158 238 264 243 243 252 245 228 253 215 240 257
334 325 333 336 328 319 317 316 308 284 300 285 294 311 296 291 264 347 310 322 303 288 271 245 233 249 274 277 272 258 261 253 241 233 247 251 239 211 236 245 249 1 342 258 236 206 75
328 331 330 321 316 314 312 315 320 264 277 284 291 302 290 285 276 285 302 332 325 321 290 292 332 231 223 260 256 254 251 43 291 331 341 338 290 225 227 243 275 333 2 323 201 18 66
317 319 319 316 314 315 309 305 307 261 252 271 293 284 296 292 293 294 300 301 295 273 287 4 297 257 257 266 241 265 296 24 2 351 344 340 323 2 340 213 226 356 2 49 320 345 8
311 314 318 318 315 313 309 309 304 288 230 242 270 316 311 257 287 308 286 278 277 285 295 303 297 304 318 326 318 329 73 77 9 285 35 351 265 305 344 278 293 295 1 145 89 53 323